Alma, MI

9:03 AM EST on January 24, 2017 (GMT -0500)
Gratiot Community

Weather History for KAMN - January, 2014

Change the Weather History Date:

Monday, January 13, 2014

  Actual Average Record
Temperature  
Mean Temperature 37 °F -  
Max Temperature 40 °F 27 °F 50 °F (1961)
Min Temperature 34 °F 13 °F -11 °F (1974)
Degree Days  
Heating Degree Days 28    
Moisture  
Dew Point 32 °F    
Average Humidity 81    
Maximum Humidity 88    
Minimum Humidity 74    
Precipitation  
Precipitation 0.00 in - - ()
Sea Level Pressure  
Sea Level Pressure 29.57 in    
Wind  
Wind Speed 7 mph (SSW)    
Max Wind Speed 12 mph    
Max Gust Speed 17 mph    
Visibility 10 miles    
Events Rain    
Averages and records for this station are not official NWS values.
T = Trace of Precipitation, MM = Missing Value Source: NWS Daily Summary

Daily Weather History Graph

Daily Weather History Graph

Search for Another Location

Airport or City:

Trip Planner

Search our weather history database for the weather conditions in past years. The results will help you decide how hot, cold, wet, or windy it might be!

Date:

Astronomy

Jan. 13, 2014 Rise Set
Actual Time 8:09 AM EST 5:26 PM EST
Civil Twilight 7:37 AM EST 5:58 PM EST
Nautical Twilight 7:01 AM EST 6:33 PM EST
Astronomical Twilight 6:27 AM EST 7:07 PM EST
Moon 3:41 PM EST (1/13) 5:56 AM EST (1/13)
Length of Visible Light 10h 20m
Length of Day
9h 17m
Waxing Gibbous, 95% of the Moon is Illuminated
Jan 13
Waxing Gibbous
Jan 15
Full
Jan 24
Last Quarter
Jan 30
New
Feb 6
First Quarter

Hourly Weather History & Observations

Time (EST) Temp. Windchill Dew Point Humidity Pressure Visibility Wind Dir Wind Speed Gust Speed Precip Events Conditions
12:09 AM 35.1 °F 28.6 °F 30.0 °F 82% 29.66 in 10.0 mi South 8.1 mph - N/A   Clear
12:31 AM 35.2 °F 28.1 °F 30.2 °F 82% 29.65 in 10.0 mi South 9.2 mph - N/A   Clear
12:51 AM 35.1 °F 28.6 °F 30.2 °F 82% 29.64 in 10.0 mi South 8.1 mph - N/A   Clear
1:11 AM 34.9 °F 28.3 °F 30.2 °F 83% 29.64 in 10.0 mi South 8.1 mph - N/A   Clear
1:31 AM 35.2 °F 29.5 °F 30.2 °F 82% 29.64 in 10.0 mi South 6.9 mph - N/A   Clear
1:52 AM 35.4 °F 29.7 °F 30.4 °F 82% 29.63 in 10.0 mi South 6.9 mph - N/A   Clear
2:12 AM 36.0 °F 29.0 °F 30.6 °F 81% 29.63 in 10.0 mi South 9.2 mph - N/A   Clear
2:32 AM 36.3 °F 30.1 °F 30.7 °F 80% 29.62 in 10.0 mi South 8.1 mph - N/A   Clear
2:52 AM 36.5 °F 30.3 °F 30.7 °F 80% 29.61 in 10.0 mi South 8.1 mph - N/A   Clear
3:12 AM 36.5 °F 31.8 °F 30.6 °F 79% 29.61 in 10.0 mi South 5.8 mph - N/A   Clear
3:27 AM 36.1 °F 30.6 °F 30.6 °F 80% 29.61 in 10.0 mi South 6.9 mph - N/A   Clear
3:49 AM 35.4 °F 29.7 °F 30.2 °F 81% 29.59 in 10.0 mi South 6.9 mph - N/A   Clear
4:09 AM 36.1 °F 30.6 °F 30.6 °F 80% 29.59 in 10.0 mi South 6.9 mph - N/A   Clear
4:30 AM 36.1 °F 31.4 °F 30.6 °F 80% 29.59 in 10.0 mi South 5.8 mph - N/A   Clear
4:50 AM 34.9 °F 29.0 °F 30.0 °F 82% 29.58 in 10.0 mi South 6.9 mph - N/A   Clear
5:10 AM 35.2 °F 28.8 °F 30.2 °F 82% 29.58 in 10.0 mi South 8.1 mph - N/A   Clear
5:30 AM 36.5 °F 31.0 °F 30.7 °F 80% 29.58 in 10.0 mi South 6.9 mph - N/A   Clear
5:50 AM 36.1 °F 31.4 °F 30.6 °F 80% 29.56 in 10.0 mi South 5.8 mph - N/A   Clear
6:12 AM 36.1 °F 31.4 °F 30.7 °F 81% 29.56 in 10.0 mi South 5.8 mph - N/A   Clear
6:32 AM 36.1 °F 30.6 °F 30.9 °F 81% 29.56 in 10.0 mi South 6.9 mph - N/A   Clear
6:52 AM 35.2 °F 30.3 °F 30.2 °F 82% 29.55 in 10.0 mi South 5.8 mph - N/A   Clear
7:13 AM 34.7 °F 29.6 °F 30.2 °F 84% 29.54 in 10.0 mi South 5.8 mph - N/A   Clear
7:33 AM 36.9 °F 32.2 °F 31.3 °F 80% 29.55 in 10.0 mi South 5.8 mph - N/A   Clear
7:53 AM 36.9 °F 33.1 °F 31.3 °F 80% 29.55 in 10.0 mi South 4.6 mph - N/A   Clear
8:13 AM 36.0 °F 32.1 °F 30.9 °F 82% 29.55 in 10.0 mi South 4.6 mph - N/A   Clear
8:33 AM 35.4 °F 31.5 °F 30.7 °F 83% 29.55 in 10.0 mi South 4.6 mph - N/A   Clear
8:48 AM 36.7 °F 31.2 °F 31.6 °F 82% 29.56 in 10.0 mi South 6.9 mph - N/A   Clear
9:10 AM 37.9 °F 32.7 °F 32.0 °F 79% 29.55 in 10.0 mi SSW 6.9 mph - N/A   Clear
9:30 AM 38.7 °F 32.4 °F 32.0 °F 77% 29.55 in 10.0 mi SSW 9.2 mph - N/A   Clear
9:51 AM 39.2 °F 33.6 °F 32.2 °F 76% 29.55 in 10.0 mi SSW 8.1 mph - N/A   Clear
10:11 AM 39.4 °F 33.2 °F 32.4 °F 76% 29.56 in 10.0 mi SSW 9.2 mph - N/A   Clear
10:31 AM 40.3 °F 34.9 °F 32.9 °F 75% 29.55 in 10.0 mi SSW 8.1 mph - N/A   Clear
10:51 AM 40.5 °F 35.1 °F 32.9 °F 74% 29.55 in 10.0 mi SSW 8.1 mph - N/A   Scattered Clouds
11:11 AM 40.3 °F 36.3 °F 33.1 °F 75% 29.53 in 10.0 mi SSW 5.8 mph - N/A   Overcast
11:26 AM 40.3 °F 35.5 °F 33.3 °F 76% 29.55 in 10.0 mi SSW 6.9 mph - N/A   Overcast
11:48 AM 40.5 °F 36.5 °F 33.4 °F 76% 29.54 in 10.0 mi SSW 5.8 mph - N/A   Overcast
12:08 PM 40.1 °F 36.1 °F 33.4 °F 77% 29.53 in 10.0 mi SSW 5.8 mph - N/A   Overcast
12:28 PM 39.6 °F 35.4 °F 34.2 °F 81% 29.52 in 10.0 mi SW 5.8 mph - N/A Rain Rain
12:49 PM 39.4 °F 35.2 °F 34.9 °F 84% 29.51 in 10.0 mi SSW 5.8 mph - N/A Rain Light Rain
1:09 PM 39.7 °F 34.9 °F 34.9 °F 83% 29.50 in 10.0 mi SSW 6.9 mph - N/A   Overcast
1:29 PM 39.9 °F 34.5 °F 34.7 °F 82% 29.51 in 10.0 mi SSW 8.1 mph - N/A   Overcast
1:49 PM 39.9 °F 35.1 °F 34.7 °F 82% 29.50 in 10.0 mi SSW 6.9 mph - N/A   Overcast
2:09 PM 40.1 °F 34.7 °F 34.7 °F 81% 29.51 in 10.0 mi SSW 8.1 mph - N/A   Overcast
2:29 PM 40.6 °F 35.4 °F 34.9 °F 80% 29.51 in 10.0 mi SW 8.1 mph - N/A   Overcast
2:49 PM 40.8 °F 36.2 °F 35.1 °F 80% 29.51 in 10.0 mi SW 6.9 mph - N/A   Overcast
3:12 PM 40.8 °F 36.2 °F 35.2 °F 80% 29.51 in 10.0 mi SSW 6.9 mph - N/A   Overcast
3:32 PM 40.8 °F 35.6 °F 35.6 °F 82% 29.51 in 10.0 mi SW 8.1 mph - N/A   Overcast
3:52 PM 40.3 °F 36.3 °F 35.2 °F 82% 29.51 in 10.0 mi SSW 5.8 mph - N/A   Overcast
4:12 PM 39.9 °F 36.7 °F 35.1 °F 83% 29.52 in 10.0 mi SSW 4.6 mph - N/A   Mostly Cloudy
4:32 PM 39.4 °F 34.5 °F 35.2 °F 85% 29.53 in 10.0 mi SSW 6.9 mph - N/A   Mostly Cloudy
4:52 PM 39.7 °F 34.9 °F 35.2 °F 84% 29.54 in 10.0 mi SSW 6.9 mph - N/A   Scattered Clouds
5:12 PM 40.3 °F 35.5 °F 35.1 °F 82% 29.55 in 10.0 mi SSW 6.9 mph - N/A   Clear
5:32 PM 40.1 °F 35.3 °F 34.9 °F 82% 29.54 in 10.0 mi SSW 6.9 mph - N/A   Clear
5:52 PM 39.2 °F 35.0 °F 34.7 °F 84% 29.55 in 10.0 mi SW 5.8 mph - N/A   Clear
6:12 PM 39.2 °F 34.2 °F 34.7 °F 84% 29.56 in 10.0 mi SW 6.9 mph - N/A   Clear
6:33 PM 39.2 °F 33.0 °F 34.3 °F 83% 29.57 in 10.0 mi SW 9.2 mph - N/A   Clear
6:50 PM 38.5 °F 32.7 °F 34.2 °F 84% 29.57 in 10.0 mi SW 8.1 mph - N/A   Clear
7:10 PM 37.9 °F 33.5 °F 34.0 °F 86% 29.58 in 10.0 mi SW 5.8 mph - N/A   Scattered Clouds
7:30 PM 37.4 °F 32.1 °F 34.2 °F 88% 29.60 in 10.0 mi WSW 6.9 mph - N/A   Mostly Cloudy
7:50 PM 37.9 °F 33.5 °F 34.7 °F 88% 29.60 in 10.0 mi WSW 5.8 mph - N/A   Overcast
8:10 PM 37.8 °F 33.3 °F 34.3 °F 87% 29.60 in 10.0 mi WSW 5.8 mph - N/A   Overcast
8:30 PM 37.4 °F 32.1 °F 34.2 °F 88% 29.61 in 10.0 mi WSW 6.9 mph - N/A   Mostly Cloudy
8:50 PM 37.2 °F 31.2 °F 34.0 °F 88% 29.62 in 10.0 mi WSW 8.1 mph - N/A   Overcast
9:11 PM 37.4 °F 30.3 °F 32.9 °F 84% 29.62 in 10.0 mi WSW 10.4 mph - N/A   Overcast
9:31 PM 37.2 °F 30.6 °F 32.0 °F 81% 29.62 in 10.0 mi West 9.2 mph - N/A   Overcast
9:51 PM 37.4 °F 29.8 °F 31.8 °F 80% 29.63 in 10.0 mi West 11.5 mph 17.3 mph N/A   Overcast
10:11 PM 37.0 °F 31.6 °F 31.8 °F 81% 29.64 in 10.0 mi West 6.9 mph - N/A   Overcast
10:28 PM 36.9 °F 30.7 °F 31.8 °F 82% 29.64 in 10.0 mi West 8.1 mph - N/A   Overcast
10:48 PM 36.5 °F 29.2 °F 30.2 °F 78% 29.64 in 10.0 mi WSW 10.4 mph - N/A   Overcast
11:08 PM 36.0 °F 30.3 °F 30.7 °F 81% 29.64 in 10.0 mi West 6.9 mph - N/A   Overcast
11:28 PM 35.6 °F 28.0 °F 30.4 °F 81% 29.65 in 10.0 mi West 10.4 mph - N/A   Overcast
11:49 PM 35.2 °F 28.1 °F 29.7 °F 80% 29.65 in 10.0 mi West 9.2 mph - N/A   Overcast